Regional Weather Roundup
Issued by NWS Upton, NY

Current Version | Previous Version | Graphics & Text | Print | Product List | Glossary Off
Versions: 1 2 3 4 5 6 7 8 9 10 11 12 13 14 15 16 17 18 19 20 21 22 23 24 25 26 27

000
ASUS41 KOKX 241504
RWROKX

REGIONAL WEATHER ROUNDUP
NATIONAL WEATHER SERVICE NEW YORK NY
1100 AM EDT SUN JUL 24 2016

NOTE: "FAIR" INDICATES FEW OR NO CLOUDS BELOW 12,000 FEET WITH NO
SIGNIFICANT WEATHER AND/OR OBSTRUCTIONS TO VISIBILITY.

NYZ071-072-176-178-NJZ106-104-241600-
NEW YORK CITY METRO AREA

CITY           SKY/WX    TMP DP  RH WIND       PRES   REMARKS
Central Park   SUNNY     85  61  44 VRB3      30.01F
LaGuardia APRT MOSUNNY   87  61  41 VRB3      29.97F
Kennedy INTL   PTSUNNY   88  58  36 W6        29.99S
Newark/Liberty MOSUNNY   88  59  37 VRB5      29.98S
BRNX BOT. GARD   N/A     84  61  45 NW3       30.00S
Wall St Helipt SUNNY     86  64  48 SW7       29.99S
Teterboro      SUNNY     86  59  39 VRB3      29.97S
$$

NYZ177-179-078>081-241600-
LONG ISLAND NEW YORK

CITY           SKY/WX    TMP DP  RH WIND       PRES   REMARKS
FARMINGDALE    MOSUNNY   83  62  49 N3        29.99S
ISLIP          PTSUNNY   82  59  45 CALM      29.98S
SHIRLEY        MOSUNNY   86  59  39 N9        29.99R
RIVERHEAD      NOT AVBL
WESTHAMPTON    MOSUNNY   82  57  42 VRB5      30.00R
SOUTHAMPTON      N/A     82  64  54 NW6       29.94S
BRIDGEHAMPTON    N/A     81  64  57 CALM      29.97R
EAST HAMPTON   FAIR      81  61  51 N5        29.97R
MONTAUK POINT    N/A     78  62  57 VRB3      29.98R
$$

NYZ052-065-067-241600-
HUDSON VALLEY

CITY           SKY/WX    TMP DP  RH WIND       PRES   REMARKS
WHITE PLAINS   MOSUNNY   82  61  48 CALM      29.99F
NEWBURGH       NOT AVBL
MONTGOMERY     SUNNY     86  61  42 N5        29.99F
POUGHKEEPSIE   SUNNY     83  60  45 W5        29.98S
ALBANY         PTSUNNY   75  63  66 NE7       30.01F
$$

NJZ001-105-106-008-010-013-015-019>022-104-241600-
NEW JERSEY

CITY           SKY/WX    TMP DP  RH WIND       PRES   REMARKS
NEWARK/LIBERTY MOSUNNY   88  59  37 VRB5      29.98S
TETERBORO      SUNNY     86  59  39 VRB3      29.97S
CALDWELL       SUNNY     87  62  43 CALM      29.99F
MORRISTOWN     MOSUNNY   86  63  45 CALM      29.99F
SOMERVILLE     SUNNY     87  63  44 CALM      29.97F
SUSSEX         SUNNY     85  63  47 VRB3      30.00F
ANDOVER          N/A     82  62  50 CALM      30.01F
TRENTON        SUNNY     85  63  47 CALM      29.99S
MILLVILLE      SUNNY     87  63  44 NE3       29.99S
ATLANTIC CITY  SUNNY     85  65  51 E6        29.99S
WRIGHTSTOWN    NOT AVBL
TOMS RIVER     SUNNY     88  63  42 CALM      30.00S
BELMAR         SUNNY     86  63  45 VRB6      30.00S
$$

PAZ047>061-062-071-241600-
EASTERN PENNSYLVANIA

CITY           SKY/WX    TMP DP  RH WIND       PRES   REMARKS
PHILADELPHIA   PTSUNNY   90  61  37 SE6       29.99F HX  90
ALLENTOWN      SUNNY     87  61  41 VRB3      30.00F
SCRANTON       SUNNY     84  60  44 VRB3      30.03F
$$

CTZ002-004>006-009-010-012-RIZ004-006-007-MAZ004-011-015-241600-
SOUTHERN NEW ENGLAND
 IN CT

CITY           SKY/WX    TMP DP  RH WIND       PRES   REMARKS
BRADLEY INTL   PTSUNNY   84  58  40 NW13      29.95F
HARTFORD       PTSUNNY   85  63  47 VRB5      29.95F
DANBURY        SUNNY     84  57  39 N7        30.01S
WTRBRY/OXFORD  MOSUNNY   81  57  44 NW9       30.02F
BRIDGEPORT     MOSUNNY   81  65  58 SW14      29.98R
MERIDEN        CLOUDY    84  59  42 VRB7      29.97S
NEW HAVEN      MOSUNNY   83  59  44 VRB6      29.97S
CHESTER        FAIR      81  61  50 VRB3      29.98R
GROTON         MOSUNNY   85  59  41 NW10G17   29.95S
WILLIMANTIC    NOT AVBL

 IN RI

CITY           SKY/WX    TMP DP  RH WIND       PRES   REMARKS
PROVIDENCE     MOSUNNY   83  59  44 N9        29.95S
BLOCK ISLAND   SUNNY     78  64  61 CALM      29.97R
WESTERLY       SUNNY     85  58  39 NW8       29.95F

 IN MA

CITY           SKY/WX    TMP DP  RH WIND       PRES   REMARKS
BOSTON         MOSUNNY   83  58  42 NW8       29.92F
WORCESTER      SUNNY     76  56  49 W14       29.99S
WESTFIELD      MOSUNNY   84  58  40 NW16      29.96F
PROVINCETOWN   SUNNY     73  65  75 NW7       29.94S
NANTUCKET      SUNNY     77  64  64 NW9       29.94S
$$

ANZ330-335-338-340-345-350-353-355-241600-
COASTAL MARINE OBSERVATIONS


STATION/POSITION TIME  SKY/WX   TEMP    WIND        PRES    VSBY  WAVE
                                AIR SEA DIR/SP/G                  HT/PER
                 (UTC)          (F)     (DEG/KT/KT) (MB)    (MI)  (FT/S)
NY HARB ENTRANCE 1350            74 73  310/  4/  6 1015.1          2/ 6
20S FIRE ISLAND  1350            74 73   10/  6/  8 1014.9          2/ 6
GREAT SOUTH BAY  1400            80 80  360/  2/  4   N/A
23 SSW MONTAUK P 1350            72 72  260/  4/  6 1015.3          2/ 6
15 E BARNEGAT LI 1422               76                N/A           2/ 6
HUDSON CANYON    1350            78 77              1015.0          3/ 6
KINGS POINT      1400            78 74              1015.4
EXECUTION ROCKS  1400            75     130/  4/  6   N/A
CENTRAL LI SOUND 1400            76 74  340/  2/  4   N/A           1/ 2
EASTERN LI SOUND 1400            74 68  360/  8/ 10   N/A
ROBBINS REEF     1400            81      80/  2/  2 1014.8
$$


>>>>>>>>>>>>>>>>>>>>>>>>>>>> KEY <<<<<<<<<<<<<<<<<<<<<<<<<<<
>                                                          <
>     SKY/WX - SKY CONDITION/PRESENT WEATHER               <
>     TMP    - TEMPERATURE IN FAHRENHEIT                   <
>     DP     - DEWPOINT IN FAHRENHEIT                      <
>     RH     - RELATIVE HUMIDITY IN PERCENT                <
>     WIND   - DIRECTION AND SPEED IN MPH                  <
>     PRES   - MEAN SEA LEVEL PRESSURE IN INCHES OF HG     <
>     WCI    - WIND CHILL INDEX                            <
>     VSB    - VISIBILITY IN MILES                         <
>     HX     - HEAT INDEX                                  <
>     TC     - TEMPERATURE IN CELSIUS                      <
>     VRB    - VARIABLE WIND DIRECTION                     <
>                                                          <
>>>>>>>>>>>>>>>>>>>>>>>>>>>> KEY <<<<<<<<<<<<<<<<<<<<<<<<<<<






USA.gov is the U.S. government's official web portal to all federal, state and local government web resources and services.